www.pogodaiklimat.ru

Погода и климат >> Архив погоды >> Япония >> Обихиро


ПОГОДА в Обихиро

  • Прогноз погоды в Обихиро
  • Монитор погоды в Обихиро

АРХИВ ПОГОДЫ в Обихиро

Время (UTC), дата Ветер
(напр.,м/с)
 
Видим.   Явления Облачность Т
(С)
Тd
(С)
f
(%)
Тe
(С)
Тes
(С)
Комфортность P
(гПа)
Po
(гПа)
Тmin
(С)
Tmax
(С)
R
(мм)
R24
(мм)
S
(см)
22 10.06 ЮВ 2 н/о н/о +13.2 +10.6 84 +13 +13 1014.3 1009.0
23 10.06 В 2 н/о н/о +13.8 +10.6 81 +14 +14 1014.6 1009.4
00 11.06 В 2 10 км 10/10
[Cu med, cong]
+14.9 +11.1 78 +15 +15 1014.3 1009.1 +11.2
01 11.06 В 1 н/о н/о +15.2 +11.0 76 +16 +16 1014.2 1009.0
02 11.06 В 1 н/о н/о +15.4 +10.6 73 +16 +16 1013.9 1008.7
03 11.06 ЮЗ 2 н/о н/о +15.8 +10.6 71 +16 +16 1013.5 1008.3
04 11.06 ЮВ 2 н/о н/о +16.2 +11.0 71 +16 +16 1013.8 1008.6
05 11.06 Ю 3 н/о н/о +17.0 +10.2 64 +17 +17 1013.3 1008.1
06 11.06 Ю 3 20 км 10/10
[Cu med, cong]
+17.2 +10.6 65 +17 +17 1013.2 1008.0
07 11.06 ЮВ 2 н/о н/о +16.0 +10.3 69 +16 +16 1013.1 1007.9
08 11.06 Ю 2 н/о н/о +16.1 +10.2 68 +16 +16 1013.2 1008.0
09 11.06 ЮВ 2 н/о н/о +15.2 +10.4 73 +15 +15 1013.4 1008.2
10 11.06 ЮВ 2 н/о н/о +14.2 +10.1 76 +14 +14 1013.8 1008.6
11 11.06 ЮВ 2 н/о н/о +13.1 +9.6 79 +13 +13 1014.8 1009.5
12 11.06 ЮВ 1 20 км 9/6
[Cu med, cong Ci sp]
+12.5 +9.2 80 +13 +13 1014.7 1009.4 +17.5
13 11.06 В 1 н/о н/о +11.9 +9.3 84 +13 +13 1014.9 1009.6
14 11.06 В 1 н/о н/о +11.7 +9.6 87 +12 +12 1014.4 1009.1
15 11.06 СВ 1 н/о н/о +11.4 +10.0 91 +12 +12 1014.3 1009.0
16 11.06 В 1 н/о н/о +11.4 +9.8 90 +12 +12 1014.0 1008.7
17 11.06 С 2 н/о н/о +11.4 +9.7 89 +11 +11 1013.9 1008.6
18 11.06 С 1 20 км 9/9
[Cu med, cong]
+11.5 +9.3 86 +11 +11 1013.7 1008.4
19 11.06 Ю 1 н/о н/о +11.6 +9.2 85 +12 +12 1013.7 1008.4
20 11.06 ЮВ 1 н/о н/о +11.6 +9.7 88 +12 +12 1013.8 1008.5
21 11.06 ЮВ 1 н/о н/о +12.1 +10.2 88 +12 +12 1013.2 1007.9
22 11.06 Ю 2 н/о н/о +13.3 +9.0 75 +13 +13 1012.9 1007.6
23 11.06 В 2 н/о н/о +14.7 +8.4 66 +15 +15 1012.6 1007.4
00 12.06 С 3 20 км 9/4
[Cu med, cong Ci sp]
+15.5 +8.3 62 +15 +22 1012.1 1006.9 +11.3
01 12.06 В 1 н/о н/о +17.3 +10.0 62 +18 +18 1011.9 1006.7
02 12.06 В 1 н/о н/о +17.5 +9.2 58 +19 +19 1011.6 1006.4
03 12.06 В 1 н/о н/о +17.7 +9.1 57 +19 +19 1010.8 1005.6
04 12.06 СЗ 1 н/о н/о +18.8 +9.9 56 +20 +20 1009.8 1004.7
05 12.06 В 1 н/о н/о +18.8 +9.9 56 +20 +20 1009.3 1004.2
06 12.06 В 1 20 км слаб. ливневой дождь 10/1
[Cu med, cong Ac As]
+18.1 +10.0 59 +19 +23 1009.0 1003.9 0.0
07 12.06 СЗ 2 н/о н/о +17.2 +10.6 65 +18 +18 1009.0 1003.8
08 12.06 ЮВ 2 н/о н/о +15.2 +10.6 74 +15 +15 1009.3 1004.1
09 12.06 ЮВ 2 н/о н/о +13.9 +9.6 75 +14 +14 1009.5 1004.3
10 12.06 ЮВ 2 н/о н/о +13.1 +9.0 76 +13 +13 1009.4 1004.2
11 12.06 Ю 2 н/о н/о +12.8 +8.5 75 +12 +12 1010.0 1004.8
12 12.06 Ю 2 10 км в посл. час ливневой дождь 10/10
[Cu med, cong]
+12.2 +7.9 75 +12 +12 1010.3 1005.0 +19.5 0.0
13 12.06 Ю 2 н/о н/о +12.1 +8.4 78 +12 +12 1010.1 1004.8
14 12.06 Ю 2 н/о н/о +11.8 +8.3 79 +11 +11 1009.9 1004.6
15 12.06 Ю 2 н/о н/о +11.7 +8.6 81 +11 +11 1009.7 1004.4
16 12.06 Ю 2 н/о н/о +11.6 +8.6 82 +11 +11 1009.7 1004.4
17 12.06 Ю 1 н/о н/о +11.3 +8.2 81 +11 +11 1009.7 1004.4
18 12.06 Ю 2 10 км 10/10
[Cu med, cong]
+11.1 +8.5 84 +10 +10 1009.7 1004.4
19 12.06 Ю 2 н/о н/о +10.9 +8.3 84 +10 +10 1009.8 1004.5
20 12.06 ЮВ 1 н/о н/о +10.8 +8.4 85 +10 +10 1009.9 1004.6
21 12.06 Ю 2 н/о н/о +11.4 +8.3 81 +11 +11 1010.5 1005.2
22 12.06 ЮВ 2 н/о н/о +12.7 +9.0 78 +12 +12 1011.2 1005.9
23 12.06 ЮВ 2 н/о н/о +13.7 +8.5 71 +14 +14 1011.2 1006.0
00 13.06 ЮВ 2 15 км 9/8
[Cu med, cong Ac trans Ci sp]
+15.8 +9.7 67 +16 +19 1010.7 1005.5 +10.7
01 13.06 В 2 н/о н/о +16.8 +9.7 63 +17 +17 1010.4 1005.2
02 13.06 В 1 н/о н/о +17.8 +10.0 60 +19 +19 1010.9 1005.7
03 13.06 ЮВ 3 н/о н/о +18.1 +10.7 62 +19 +19 1010.2 1005.1
04 13.06 В 2 н/о н/о +17.8 +10.7 63 +19 +19 1010.2 1005.1
05 13.06 ЮВ 2 н/о н/о +17.4 +10.3 63 +18 +18 1010.5 1005.3
06 13.06 ЮВ 2 20 км 9/9
[Cu med, cong]
+17.7 +10.3 62 +18 +19 1010.6 1005.4
07 13.06 ЮВ 3 н/о н/о +16.6 +9.5 63 +17 +17 1010.8 1005.6
08 13.06 ЮВ 2 н/о н/о +15.8 +10.1 69 +16 +16 1011.1 1005.9
09 13.06 В 2 н/о н/о +13.5 +9.4 76 +13 +13 1011.9 1006.7
10 13.06 ЮВ 2 н/о н/о +12.4 +9.4 82 +11 +11 1013.0 1007.7
11 13.06 ЮВ 2 н/о н/о +11.9 +9.3 84 +11 +11 1014.1 1008.8
12 13.06 ЮВ 1 10 км {ливн. осадки} 10/10
[St]
+11.6 +9.4 86 +11 +11 1014.6 1009.3 +19.1 0.0
13 13.06 ЮВ 2 н/о н/о +11.3 +9.2 87 +10 +10 1014.6 1009.3
14 13.06 ЮВ 1 н/о н/о +11.4 +9.5 88 +11 +11 1014.6 1009.3
15 13.06 В 1 н/о н/о +11.2 +9.5 89 +11 +11 1014.8 1009.5
16 13.06 В 1 н/о н/о +11.0 +10.1 94 +11 +11 1014.6 1009.3
17 13.06 В 1 н/о н/о +10.8 +10.0 95 +11 +11 1014.1 1008.8
18 13.06 В 1 10 км 10/10
[St]
+10.9 +10.1 95 +11 +11 1014.0 1008.7
19 13.06 СВ 1 н/о н/о +11.0 +10.1 94 +11 +11 1014.1 1008.8
20 13.06 С 1 н/о н/о +11.1 +9.9 92 +11 +11 1014.0 1008.7
21 13.06 В 1 н/о н/о +11.1 +9.9 92 +12 +12 1014.1 1008.8
22 13.06 СВ 1 н/о н/о +11.4 +9.8 90 +11 +11 1013.6 1008.3
23 13.06 Ю 1 н/о н/о +12.1 +10.0 87 +12 +12 1013.5 1008.2
00 14.06 В 1 20 км 10/10
[St]
+12.7 +10.6 87 +13 +13 1013.6 1008.3 +10.7
01 14.06 СВ 1 н/о н/о +13.7 +11.2 85 +14 +14 1013.5 1008.3
02 14.06 СВ 1 н/о н/о +15.0 +11.6 80 +16 +16 1013.2 1008.0
03 14.06 С 2 н/о н/о +15.9 +11.7 76 +16 +16 1013.0 1007.8
04 14.06 СВ 3 н/о н/о +16.9 +12.9 77 +17 +17 1012.5 1007.3
05 14.06 В 2 н/о н/о +19.4 +14.2 72 +22 +22 комфорт 1011.8 1006.7
06 14.06 В 2 15 км 9/6
[Cu med, cong Ac trans Ci sp]
+19.2 +14.3 73 +21 +24 комфорт 1011.3 1006.2
07 14.06 В 2 н/о н/о +19.7 +15.0 74 +22 +22 комфорт 1011.2 1006.1
08 14.06 СВ 2 н/о н/о +19.5 +15.0 75 +22 +22 комфорт 1011.4 1006.3
09 14.06 В 2 н/о н/о +18.0 +14.9 82 +19 +19 1011.6 1006.4
10 14.06 В 3 н/о н/о +15.7 +14.2 91 +15 +15 1012.0 1006.8
11 14.06 В 2 н/о н/о +15.0 +14.1 94 +15 +15 1012.5 1007.3
12 14.06 В 1 8000 м дымка 10/10
[St]
+14.9 +14.1 95 +15 +15 1013.2 1008.0 +20.7
13 14.06 В 1 н/о н/о +14.7 +14.1 96 +15 +15 1013.5 1008.3
14 14.06 В 1 н/о н/о +14.4 +13.9 97 +15 +15 1013.5 1008.3
15 14.06 В 1 н/о н/о +14.4 +14.1 98 +15 +15 1013.1 1007.9
16 14.06 В 1 н/о н/о +14.0 +13.9 99 +15 +15 1013.1 1007.9
17 14.06 В 1 н/о н/о +13.9 +13.8 99 +14 +14 1012.7 1007.5
18 14.06 В 1 5000 м дымка 10/10
[St]
+13.7 +13.4 98 +15 +15 1012.5 1007.3 0.0
19 14.06 ЮВ 1 н/о н/о +13.7 +13.6 99 +15 +15 1012.5 1007.3
20 14.06 СВ 1 н/о н/о +13.7 +13.6 99 +15 +15 1012.8 1007.6
21 14.06 штиль 0 н/о н/о +14.2 +14.1 99 +14 +14 1012.5 1007.3
22 14.06 Ю 1 н/о н/о +14.5 +13.7 95 +15 +15 1012.6 1007.4
23 14.06 Ю 1 н/о н/о +15.8 +14.0 89 +16 +16 1012.9 1007.7
00 15.06 СВ 1 8000 м дымка 10/10
[St]
+16.3 +15.0 92 +17 +17 1012.8 1007.6 +13.6 0.0
01 15.06 Ю 2 н/о н/о +17.9 +15.4 85 +18 +18 1012.8 1007.6
02 15.06 Ю 2 н/о н/о +18.3 +15.2 82 +19 +19 1012.3 1007.2
03 15.06 ЮВ 1 н/о н/о +18.3 +15.6 84 +20 +20 1011.8 1006.7
04 15.06 Ю 3 н/о н/о +18.8 +14.5 76 +20 +20 1011.8 1006.7
05 15.06 ЮВ 3 н/о н/о +18.9 +15.0 78 +20 +20 1011.2 1006.1
06 15.06 ЮВ 3 10 км 9/9
[Cu med, cong]
+18.0 +14.5 80 +18 +19 1011.2 1006.1
07 15.06 ЮВ 3 н/о н/о +16.7 +14.0 84 +17 +17 1011.5 1006.3
08 15.06 ЮВ 2 н/о н/о +15.9 +13.8 87 +16 +16 1011.4 1006.2
09 15.06 ЮВ 2 н/о н/о +15.1 +13.3 89 +15 +15 1011.4 1006.2
10 15.06 В 1 н/о н/о +14.5 +13.6 94 +15 +15 1011.3 1006.1
11 15.06 В 1 н/о н/о +14.0 +13.5 97 +14 +14 1011.1 1005.9
12 15.06 ЮВ 1 8000 м слаб. ливневой дождь 10/10
[Frnb]
+13.8 +13.3 97 +15 +15 1010.9 1005.7 +19.3 0.5
13 15.06 В 2 н/о н/о +13.4 +13.1 98 +13 +13 1009.9 1004.7
14 15.06 В 2 н/о н/о +13.3 +13.2 99 +13 +13 1008.9 1003.7
15 15.06 СВ 2 н/о н/о +13.3 +13.2 99 +13 +13 1007.7 1002.5
16 15.06 В 1 н/о н/о +13.2 +13.1 99 +13 +13 1006.7 1001.5
17 15.06 В 2 н/о н/о +13.1 +13.0 99 +12 +12 1005.4 1000.2
18 15.06 В 2 5000 м слаб. ливневой дождь 10/10
[Frnb]
+13.2 +13.1 99 +13 +13 1004.6 999.4 6
19 15.06 В 1 н/о н/о +13.2 +13.2 100 +14 +14 1003.8 998.6
20 15.06 С 1 н/о н/о +13.3 +13.3 100 +13 +13 1003.5 998.3
21 15.06 СЗ 2 н/о н/о +13.3 +13.2 99 +13 +13 1001.9 996.7
22 15.06 СВ 2 н/о н/о +13.3 +13.2 99 +12 +12 1000.3 995.1
23 15.06 В 2 н/о н/о +13.7 +13.6 99 +13 +13 998.7 993.5
00 16.06 З 2 10 км слаб. ливневой дождь 10/10
[Frnb]
+14.2 +13.7 97 +14 +14 997.9 992.7 +13.0 25
01 16.06 СЗ 2 н/о н/о +14.8 +14.3 97 +14 +14 996.7 991.6
02 16.06 С 3 н/о н/о +15.7 +15.1 96 +15 +15 994.9 989.8
03 16.06 С 4 н/о н/о +16.1 +14.6 91 +15 +15 993.0 987.9
04 16.06 СВ 4 н/о н/о +16.2 +13.7 85 +16 +16 992.2 987.1
05 16.06 СВ 3 н/о н/о +16.2 +12.8 80 +16 +16 991.1 986.0
06 16.06 С 3 10 км слаб. ливневой дождь 10/10
[Frnb]
+15.1 +13.0 87 +14 +14 989.7 984.6 5
07 16.06 С 2 н/о н/о +15.0 +13.6 91 +15 +15 989.2 984.1
08 16.06 В 2 н/о н/о +14.3 +12.5 89 +14 +14 988.4 983.3
09 16.06 В 2 н/о н/о +13.3 +12.7 96 +13 +13 987.8 982.7
10 16.06 В 2 н/о н/о +12.6 +11.7 94 +12 +12 988.1 983.0
11 16.06 В 1 н/о н/о +12.0 +11.5 97 +12 +12 987.9 982.8
12 16.06 В 1 8000 м слаб. ливневой дождь 10/10
[Frnb]
+11.7 +11.2 97 +12 +12 988.3 983.1 +16.8 14
13 16.06 СВ 1 н/о н/о +11.4 +11.1 98 +12 +12 988.3 983.1
14 16.06 С 1 н/о н/о +11.5 +11.4 99 +11 +11 988.5 983.3
15 16.06 С 2 н/о н/о +11.4 +10.6 95 +10 +10 988.9 983.7
16 16.06 С 3 н/о н/о +10.7 +9.8 94 +9 +9 989.3 984.1
17 16.06 С 2 н/о н/о +10.5 +9.3 92 +9 +9 989.8 984.6
18 16.06 С 4 20 км в посл. час ливневой дождь 9/9
[Cu med, cong]
+11.1 +8.9 86 +9 +9 990.7 985.5 6
19 16.06 С 4 н/о н/о +11.1 +8.0 81 +9 +9 992.0 986.8
20 16.06 СЗ 4 н/о н/о +11.4 +7.1 75 +9 +9 992.9 987.7
21 16.06 СЗ 5 н/о н/о +12.0 +7.1 72 +10 +10 993.9 988.7
22 16.06 СЗ 6 н/о н/о +12.6 +6.7 67 +10 +10 994.5 989.3
23 16.06 СЗ 5 н/о н/о +13.8 +7.1 64 +12 +12 995.8 990.6
00 17.06 СЗ 3 30 км 9/3
[Cu med, cong Ac As Ci sp]
+15.3 +8.1 62 +15 +20 996.6 991.5 +10.5 6
01 17.06 СЗ 5 н/о н/о +15.9 +7.9 59 +15 +15 997.1 992.0
02 17.06 З 6 н/о н/о +15.4 +7.7 60 +14 +14 998.2 993.1
03 17.06 З 6 н/о н/о +14.6 +6.9 60 +13 +13 999.0 993.8
04 17.06 З 7 н/о н/о +14.1 +7.2 63 +12 +12 999.4 994.2
05 17.06 З 7 н/о н/о +14.7 +7.5 62 +13 +13 1000.8 995.6
06 17.06 СЗ 8 30 км в посл. час ливневой дождь 9/1
[Cu med, cong Ac As]
+14.9 +7.5 61 +13 +14 1001.3 996.1 0.0
07 17.06 З 9 н/о н/о +15.0 +7.6 61 +13 +13 1002.2 997.0
08 17.06 З 7 н/о н/о +14.5 +7.1 61 +13 +13 1003.0 997.8
09 17.06 СЗ 9 н/о н/о +13.9 +7.2 64 +11 +11 1004.2 999.0
10 17.06 З 5 н/о н/о +13.1 +6.7 65 +11 +11 1004.9 999.7
11 17.06 З 6 н/о н/о +12.9 +5.3 60 +11 +11 1005.7 1000.5
12 17.06 З 5 20 км 9/1
[Cu med, cong Ac trans Ci sp]
+12.3 +4.8 60 +10 +10 1006.7 1001.5 +16.5 0.0
13 17.06 СЗ 6 н/о н/о +11.9 +4.9 62 +9 +9 1007.3 1002.1
14 17.06 СЗ 6 н/о н/о +11.4 +5.1 65 +9 +9 1008.2 1002.9
15 17.06 СЗ 4 н/о н/о +11.5 +4.0 60 +9 +9 1008.4 1003.1
16 17.06 СЗ 4 н/о н/о +11.4 +3.9 60 +10 +10 1008.9 1003.6
17 17.06 СЗ 4 н/о н/о +11.3 +4.1 61 +9 +9 1009.4 1004.1
18 17.06 З 3 20 км 6/0
[Ac trans]
+11.4 +4.2 61 +10 +10 1009.9 1004.6
19 17.06 ЮВ 2 н/о н/о +12.0 +3.8 57 +12 +12 1010.1 1004.8
20 17.06 Ю 2 н/о н/о +10.7 +5.1 68 +10 +10 1010.4 1005.1
21 17.06 Ю 2 н/о н/о +10.9 +6.3 73 +10 +10 1010.7 1005.4
22 17.06 С 1 н/о н/о +12.4 +4.4 58 +13 +13 1010.8 1005.5

 

Местоположение метеостанции Обихиро (Япония): широта 42.92 долгота 143.21 высота над уровнем моря 43 м.

В архиве по умолчанию представлена погода в Обихиро за последнюю неделю. Архивные данные за месяц целиком и за предыдущие месяцы, начиная с января 2011 года, Вы можете получить, выбрав интересующий диапазон дат из раскрывающегося списка и нажав кнопку "Ввод!".


*Определитесь, кто Вы:
робот инопланетянин человек

Внимание! Время в таблицах - всемирное. Для получения местного времени необходимо прибавить поправку, которая равна 9 ч.

Смотрите также архив погоды в соседних городах и на ближайших метеорологических станциях:

Погода в Хироо (Япония) (69 км)
Погода в Уракава (Япония) (91 км)
Погода в Кусиро (Япония) (95 км)
Погода в Асахикаве (Япония) (117 км)
Погода в Ивамидзаве (Япония) (121 км)
Погода в Томакомае (Япония) (140 км)
Погода в Абасири (Япония) (150 км)
Погода в Саппоро (Япония) (154 км)
Погода в Момбецу (Япония) (159 км)
Погода в Румои (Япония) (171 км)

Пояснения к столбцам:

Ветер - указаны скорость ветра в м/с - средняя за 10 мин, порывы в срок и между сроками (в фигурных скобках) и направление, откуда дует ветер: С - северный, СВ - северо-восточный, В - восточный, ЮВ - юго-восточный, Ю - южный, ЮЗ - юго-западный, З - западный, СЗ - северо-западный.
Видимость - горизонтальная дальность видимости в метрах или километрах. При видимости от 1 до 10 км при отсутствии осадков обычно наблюдается дымка, при ухудшении видимости до 1 км и менее - туман. В сухую погоду видимость может ухудшаться дымом, пылью или мглою.
Явления - указаны атмосферные явления, наблюдавшиеся в срок или в последний час перед сроком; фигурными скобками обозначены явления, наблюдавшиеся между сроками (за 1-3 часа до срока); квадратными скобками обозначены град или гололедные отложения с указанием их диаметра в мм.
Облачность - указаны через наклонную черту общая и нижняя облачность в баллах и высота нижней границы облаков в метрах; квадратными скобками обозначены формы облаков: Ci - перистые, Cs - перисто-слоистые, Cc - перисто-кучевые, Ac - высококучевые, As - высокослоистые, Sc - слоисто-кучевые, Ns - слоисто-дождевые, Cu - кучевые, Cb - кучево-дождевые. Подробнее классификацию облаков см. в Атласе облаков (PDF).
T - Температура воздуха - температура, измеренная на высоте 2 м над землей.
Td - Температура точки росы - температура, при понижении до которой содержащийся в воздухе водяной пар достигнет насыщения.
f - Относительная влажность воздуха - влажноcть воздуха, измеренная на высоте 2 м над землей.
Te - Эффективная температура - температура, которую ощущает одетый по сезону человек в тени. Характеристика душности погоды. При расчете учитывается влияние влажности воздуха и скорости ветра на теплоощущения человека.
Tes - Эффективная температура на солнце - температура, которую ощущает человек, с поправкой на солнечный нагрев. Характеристика знойности погоды. Зависит от высоты солнца над горизонтом, облачности и скорости ветра. Ночью, в пасмурную погоду, а также при ветре 12 м/с и более поправка равна нулю.
P - Атмосферное давление - приведенное к уровню моря атмосферное давление.
Po - Атмосферное давление - измеренное на уровне метеостанции атмосферное давление.
Tmin - Минимальная температура - минимум температуры воздуха на высоте 2 м над землей.
Tmax - Максимальная температура - максимум температуры воздуха на высоте 2 м над землей.
R - Количество осадков - Количество выпавших осадков за период времени, мм. При наведении курсора мыши на число - период времени, за который выпало указанное количество осадков.
R24 - Количество осадков - Количество выпавших осадков за 24 часа, мм.
S - Снежный покров - Высота снежного покрова, см. При наведении курсора мыши на число - состояние снежного покрова и степень покрытия местности в баллах.